STARLINK-4726, 53802

Orbit data source: Space-Track

STARLINK-4726, 53802 is a payload satellite owned by SpaceX/Seattle (US) in LEO that was launched on Sun, 11 Sep 2022 UTC via an FALCON 9 launch vehicle from the Air Force Eastern Test Range (AFETR). Payload-class satellites include a variety of spacecraft equipped with specific instruments for various scientific and technological missions. These include communications satellites like Starlink; space stations such as the ISS; scientific satellites like the Hubble; Earth observation satellites from companies like Planet Labs, Umbra, and HawkEye 360; GPS; miniature CubeSats for education and research; and military/defense satellites.

Loading next visibility...
Identifier
53802, 2022-111AF
Orbit
LEO
Country
Flag of USUS
Related business
Manufacturer
SpaceX/Seattle
Mission
Operational Commercial Communications
Bus & Motor
STARLINK, Unknown motor
Mass
305 kg wet, ~290 kg dry
Launch date (UTC)
2022-09-11 (4 years ago)
Launch vehicle
FALCON 9
Launch site
Air Force Eastern Test Range (AFETR)
Object type
Payload
Rocket body
Debris
Shape & HBR
Box + 1 Pan, 10.1 m
Radar Cross Section
13.562 m², Large (>1 m²)

Expand to show TLE details & history
Last TLE update: 9 hours ago

TLE from 9 hours ago
0 STARLINK-4726
1 53802U 22111AF  26236.44751799  .00000721  00000-0  32476-4 0  9996
2 53802  53.1586 219.8963 0001180  90.2246 269.8892 15.34391057219294
Epoch: 2026-08-24T10:44Z
TLE epoch observation values (Epoch: 2026-08-24T10:44:25.554Z)
Latitude
Longitude
86.06074°
Altitude
463.633 km
Speed
7.636 km/s
True Right ascension
14h 39m 35s
True Declination
0° 00' 00"
Sunlit
Object was in daylight at epoch
Visualization orbit readout
Latitude
Unknown
Longitude
Unknown
Altitude
Unknown
Speed
Unknown
Apparent Right ascension
Unknown
Apparent Declination
Unknown
Sunlit
N/A
Visualization observer readout
Local Sidereal Time
10:26:37
Azimuth
Unknown
Elevation
Unknown
Doppler factor
Unknown
Orbital elements
Apogee altitude
463.794 km
Perigee altitude
462.18 km
Semi-major axis
6,841.124 km
Eccentricity
0.00012
Inclination
53.1586°
RAAN
219.8963°
Arg. of periapsis
90.2246°
True anomaly
269.87568°
Mean anomaly
269.8892°
Eccentric anomaly
269.88244°
Mean motion
3.83576 °/min
Orbital period
93.85 mins
BSTAR
0.000032476
Loading maneuver chart data...
Computing Atmospheric mass density...
Loading historical data...
Loading historical data...
Loading historical data...
Loading historical data...
Loading historical data...
Loading historical data...
Loading historical data...

Documentation

Showing up to 5 results
|